星链-5385 (STARLINK-5385 )

导读

STARLINK-5385是美国太空探索技术公司SpaceX星链星座的一员,于2022年12月28日发射升空。星链项目旨在构建全球卫星互联网星座,为全球提供高速宽带互联网服务。该卫星入轨后参与星座组网,进一步扩充星链网络覆盖范围,提升网络服务能力,推动全球卫星互联网的部署进程。

基本信息
目录编号:
54821
目录名称:
STARLINK-5385
国际标识:
2022-177B
轨道中心:
EARTH
卫星名称:
星链-5385
卫星全名:
星链-5385 (STARLINK-5385 )
卫星状态:
在轨 (已飞行1267 天)
发射日期:
2022-12-28 UTC
国别 :
美国 (US)
星等 :
--
轨道信息
数据来源 国际轨道数据
星历时间: 2026-06-17T09:45:56+0800
7小时前
查看轨道信息
半长轴: 6861.185km
偏心率: 0.0001698
轨道倾角: 43.003°
近地点辐角 275.233°
升交点赤经 294.732°
平近点角 84.833°
近地点: 481.882km
远地点: 484.214km
周期: 94.267分钟
每日圈数: 15.275805
详细信息
固有亮度:
5
最大亮度:
2.5
卫星平台:
Starlink v1.5
覆盖范围:
全球
运营商:
太空探索技术公司
运营商所在国:
美国
制造商(研发单位):
太空探索技术公司
制造商所在国:
美国
使用方式:
暂无
卫星简介
星链(Starlink)计划是由太空探索技术公司(SpaceX)提出的一个巨型低轨卫星互联网星座项目,计划在2019年至2024年间在太空搭建由约1.2万颗卫星组成的“星链”网络,其中1584颗将部署在地球上空550千米处的近地轨道,并从2020年开始工作。该卫星仍在工作。
2D轨道图
3D轨道图
轨道高度分析图
轨道倾角分析图
轨道综合分析图
查看轨道综合分析图